Location: Fours
(44.3167°N, 6.7000°E)
Time: 10:41:39
(UTC+00:00)

ISS - Pass Details

Date: 07 October 2021
Orbit: 417 x 423 km, 51.6° (Epoch: 27 October)

Event Time Altitude Azimuth Distance (km) Brightness Sun altitude
Rises 18:24:28 0° 286° (WNW) 2,363 1.8 -15.4°
Reaches altitude 10° 18:27:26 10° 257° (WSW) 1,496 0.2 -15.9°
Maximum altitude 18:29:03 13° 228° (SW) 1,326 -0.7 -16.2°
Drops below altitude 10° 18:30:39 10° 199° (SSW) 1,492 -0.8 -16.5°
Enters shadow 18:32:54 - 175° (S) 2,105 -0.3 -16.9°
